Location: Niverville
(49.6028°N, 97.0419°W)
Time: 00:29:42
(UTC-05:00)

Cosmos 1154 Rocket - Visible Passes

Search period start: 16 April 2014 00:00
Search period end: 26 April 2014 00:00
Orbit: 353 x 364 km, 81.2° (Epoch: 14 April)

Date Brightness Start Highest point End Pass type
(mag) Time Alt. Az. Time Alt. Az. Time Alt. Az.
18 Apr 4.7 05:24:11 10° NNE 05:26:40 24° ENE 05:29:08 10° SE visible
20 Apr 5.3 04:48:30 10° NNE 04:50:20 15° ENE 04:52:09 10° ESE visible
21 Apr 3.3 05:15:43 10° N 05:18:32 43° ENE 05:21:18 10° SSE visible
22 Apr 2.1 05:43:35 10° NNW 05:46:25 50° W 05:49:13 10° S visible
23 Apr 4.5 04:39:09 10° NNE 04:41:36 24° ENE 04:44:02 10° SE visible
24 Apr 2.0 05:06:28 10° N 05:09:23 81° ENE 05:12:15 10° SSE visible
25 Apr 5.1 04:02:29 10° NNE 04:04:12 15° ENE 04:05:55 10° ESE visible
25 Apr 2.9 05:34:18 10° NNW 05:36:51 28° W 05:39:22 10° SSW visible
